Weather in Krasnoye Selo

Russia / Saint-Petersburg and Leningrad Oblast     59°43′58″N   30°05′16″E
temp.,
°C
wind,
m/s
gust,
m/s
humid.,
%
clouds,
%
prec.,
mm/h
press.,
hPa
HPBL,
m
9 may, sun
sun900:00+1w411895 0.0 1010226
03:00+1w411920 0.0 1011247
06:00+1w410890 0.0 1013235
09:00+6wnw58640 0.0 1015696
12:00+9wnw57421 0.0 10161748
15:00+11wnw57345 0.0 10181871
18:00+11wnw2543100 0.0 10181544
21:00+6s347131 0.0 101959
10 may, mon
mon1000:00+5s386995 0.0 1020137
03:00+6s41269100 0.0 1020312
06:00+6s61378100 0.1 1020956
09:00+6s71491100 2.2 1020624
12:00+11ssw71279100 0.4 1020664
15:00+18ssw7105796 0.4 10191361
18:00+18ssw51061100 0.0 10201292
21:00+14s51374100 0.0 1021455
11 may, tue
tue1100:00+13ssw61579100 0.0 1023485
03:00+11ssw51386100 0.0 1024372
06:00+11ssw51387100 0.0 1024338
09:00+14ssw51170100 0.0 1025486
12:00+19ssw685174 0.0 10251025
15:00+21s68455 0.0 10251325
18:00+20s47535 0.0 10251017
21:00+14sse38755 0.0 1025145
12 may, wed
wed1200:00+12s378317 0.0 1026106
03:00+10s37865 0.0 1026112
06:00+10s36831 0.0 1026109
09:00+16se45590 0.0 1025372
12:00+19se45461 0.0 1025969
15:00+22se45444 0.0 10231319
18:00+22ese36520 0.0 10221275
21:00+16e34724 0.0 102147
13 may, thu
thu1300:00+16ese3107538 0.0 1021308
03:00+13ese399612 0.0 1020208
06:00+13ese4129576 0.0 1019444
09:00+16ese5128082 0.0 1018956
12:00+16ese6108299 0.7 1016967
15:00+18se6106575 1.6 10151601
18:00+16sse51068100 0.9 10151628
21:00+12sse37812 1.0 1015159